星链-34756 (STARLINK-34756)

导读 | 豆包AI

STARLINK-34756是美国SpaceX公司星链星座的一员,于2025年7月19日发射升空。星链项目旨在构建全球低轨卫星互联网系统,为偏远及网络欠发达地区提供高速宽带服务。该卫星采用平板设计,搭载霍尔推进器与自主避撞系统,服役寿命约5-7年,退役后会主动离轨再入大气层焚毁,减少空间碎片影响,是星链全球组网进程中的组成部分。

Basic Information
目录编号:
64849
目录名称:
STARLINK-34756
国际标识:
2025-152H
轨道中心:
EARTH
卫星名称:
星链-34756
卫星全名:
星链-34756 (STARLINK-34756)
卫星状态:
在轨 (已飞行238 天)
发射日期:
2025-07-19 UTC
国别 :
美国 (US)
星等 :
--
Orbit Information
数据来源 国际轨道数据 AOE轨道数据
星历时间 2026-03-14T06:00:02+0800
17小时前
查看轨道信息
2026-03-13T09:00:00+0800
1天前
查看轨道信息
半长轴 6930.279km 6930.205km
偏心率 0.0000897 0.0000894
轨道倾角 97.603° 97.602°
近地点辐角 114.931° 111.109°
升交点赤经 289.704° 288.843°
平近点角 261.372° 207.813°
近地点 551.52km 551.448km
远地点 552.764km 552.688km
周期 95.694分钟 95.693分钟
每日圈数 15.04793 15.048169
Detailed Information
固有亮度:
5
最大亮度:
2.5
卫星平台:
Starlink V1.0
覆盖范围:
全球
运营商:
太空探索技术公司
运营商所在国:
美国
制造商(研发单位):
太空探索技术公司
制造商所在国:
美国
使用方式:
暂无
Satellite Introduction
Starlink 计划是 SpaceX 推出的全球卫星互联网项目,通过发射低轨道卫星,为全球尤其是偏远地区提供高速、低延迟的互联网服务。自 2019 年起,Starlink 已部署数千颗卫星,旨在缩小全球数字鸿沟,推动互联网普及。该项目还为军事、航空等行业提供通信支持,带来广泛经济效益。
2D Orbit Map
3D Orbit Map
Orbit Altitude Analysis Chart
Orbit Inclination Analysis Chart
Orbit Comprehensive Analysis Chart
View Comprehensive Chart